Location: *
(52.2090°N, 4.1550°W)
Time: 07:31:54
(UTC+00:00)

CARTOSAT-1 - Pass Details

Date: 19 July 2019
Orbit: 617 x 619 km, 97.9° (Epoch: 24 August)

Event Time Altitude Azimuth Distance (km) Brightness Sun altitude
Exits shadow 21:05:56 - 138° (SE) 2,264 5.7 -5.4°
Reaches altitude 10° 21:06:40 10° 135° (SE) 1,983 5.5 -5.5°
Maximum altitude 21:10:41 39° 67° (ENE) 929 4.3 -5.9°
Drops below altitude 10° 21:14:43 10° 358° (N) 1,996 7.0 -6.3°
Sets 21:17:01 0° 351° (N) 2,906 8.0 -6.6°
